Regional Weather Roundup
Issued by NWS

Home | Current Version | Previous Version | Text Only | Print | Product List | Glossary Off
Versions: 1 2 3 4 5 6 7 8 9 10 11 12 13 14 15 16 17 18 19 20 21 22 23 24 25 26 27 28 29 30 31 32 33 34 35 36 37 38 39 40 41 42 43 44 45 46 47 48 49 50

333
ASUS43 KFSD 231910
RWRSD

WEATHER ROUNDUP FOR SOUTH DAKOTA
NATIONAL WEATHER SERVICE SIOUX FALLS SD
200 PM CDT MON MAY 23 2016

NOTE: "FAIR" INDICATES FEW OR NO CLOUDS BELOW 12,000 FEET WITH NO
SIGNIFICANT WEATHER AND/OR OBSTRUCTIONS TO VISIBILITY.


SDZ001>005-009-010-012>017-232000-
NORTHWEST AND NORTH CENTRAL SOUTH DAKOTA

CITY           SKY/WX    TMP DP  RH WIND       PRES   REMARKS
BUFFALO          N/A     72  31  22 SW14      29.66F
FAITH            N/A     72  40  31 SW9       29.72F
MOBRIDGE       SUNNY     76  48  37 VRB3      29.67F
$$

SDZ012>016-024>037-041>051-057-063-072>074-232000-
SOUTHWEST AND SOUTH CENTRAL SOUTH DAKOTA

CITY           SKY/WX    TMP DP  RH WIND       PRES   REMARKS
RAPID CTY ARPT MOSUNNY   74  33  22 SE17G26   29.72F
PIERRE         SUNNY     75  50  41 VRB5      29.69F
CUSTER         SUNNY     58  27  30 SW15G22   29.83F
ELLSWORTH AFB  SUNNY     73  37  27 VRB5      29.71F
PHILIP         SUNNY     74  46  36 SW9G20    29.71F
PINE RIDGE     SUNNY     72  32  23 SW16G22   29.77F
WINNER         FAIR      74  50  42 SW12      29.74F
$$

SDZ004>011-016>023-039-040-232000-
NORTHEAST SOUTH DAKOTA

CITY           SKY/WX    TMP DP  RH WIND       PRES   REMARKS
ABERDEEN       SUNNY     77  53  43 SW8       29.70S
WATERTOWN      CLOUDY    72  58  61 S13       29.74S
BROOKINGS      CLOUDY    71  60  68 SW12      29.76S
SISSETON         N/A     78  54  43 W14       29.69S
$$

SDZ017-020-022-023-036>040-048>070-232000-
SOUTHEAST SOUTH DAKOTA

CITY           SKY/WX    TMP DP  RH WIND       PRES   REMARKS
SIOUX FALLS    CLOUDY    72  64  76 W8        29.76F
HURON          CLOUDY    75  54  47 SW6       29.72S
CHAMBERLAIN    SUNNY     75  55  50 SW7       29.73F
MITCHELL       CLOUDY    72  57  59 S5        29.75S
YANKTON        CLOUDY    72  61  68 W9        29.74F
$$

ABBREVIATIONS USED IN REMARKS
   TC - TEMPERATURE IN CELSIUS
  WCI - WIND CHILL INDEX
   HX - HEAT INDEX
  VSB - VISIBILITY





USA.gov is the U.S. government's official web portal to all federal, state and local government web resources and services.